Simultaneous Nadir Overpasses (SNOs) Predictions

Prediction of SNOs between AQUA and GOES-15 Satellite Orbit:

Table of predicted SNOs for the next 14.0 days since TLE Epoch: 4/27/2017
Index Date Time (AQUA) AQUA Lat,Lon GOES-15 Lat,Lon Distance(km) Time Diff (sec)
1 04/29/2017 10:25:55 -0.51,-132.66 0.07,-135.43 314.35 80
2 04/29/2017 22:47:19 -0.56,-137.86 -0.07,-135.47 271.16 80
3 05/01/2017 22:35:06 0.03,-134.89 -0.07,-135.45 62.76 80
4 05/03/2017 22:22:54 0.69,-131.94 -0.07,-135.42 396.39 80
5 05/04/2017 10:44:09 0.45,-137.09 0.07,-135.37 196.35 80
6 05/06/2017 10:31:57 -0.21,-134.14 0.07,-135.34 137.11 80
7 05/06/2017 22:53:19 -0.92,-139.32 -0.06,-135.38 448.66 80
8 05/08/2017 10:19:44 -0.82,-131.17 0.07,-135.30 470.17 80
9 05/08/2017 22:41:07 -0.30,-136.36 -0.06,-135.34 115.73 80
10 05/10/2017 22:28:54 0.31,-133.39 -0.06,-135.30 216.72 80
11 05/11/2017 10:50:09 0.76,-138.56 0.05,-135.25 376.44 80




NCC Satellite Simultaneous Nadir Overpasses (SNOs) Prediction Service
